This is the latest recevied weather packets stored in our database for station/object IZ1UQG-2. If no packets are shown the sender has not sent any weather packets the latest 10 day(s).
| Time | Temp. | Humidity | Pressure | Rain* | Wind** | Luminosity | Snow |
|---|---|---|---|---|---|---|---|
| 1778098024 | 12.22° C | 90% | 1009.1 hPa | 0.51 mm | - | 0 W/m² | - |
| 1778097725 | 12.22° C | 89% | 1009 hPa | 0.51 mm | - | 0 W/m² | - |
| 1778097544 | 12.22° C | 89% | 1009 hPa | 0.51 mm | - | 0 W/m² | - |
| 1778097484 | 12.22° C | 90% | 1009 hPa | 0.76 mm | - | 0 W/m² | - |
| 1778097365 | 12.22° C | 89% | 1009 hPa | 0.76 mm | - | 0 W/m² | - |
| 1778096825 | 12.22° C | 90% | 1008.9 hPa | 1.27 mm | - | 0 W/m² | - |
| 1778095924 | 12.22° C | 89% | 1008.7 hPa | 2.29 mm | - | 0 W/m² | - |
| 1778095264 | 12.78° C | 88% | 1008.5 hPa | 3.05 mm | - | 0 W/m² | - |
| 1778095204 | 12.78° C | 88% | 1008.5 hPa | 3.05 mm | - | 0 W/m² | - |
| 1778094844 | 12.78° C | 87% | 1008.4 hPa | 3.05 mm | - | 0 W/m² | - |
| 1778094784 | 12.78° C | 87% | 1008.4 hPa | 3.05 mm | - | 0 W/m² | - |
| 1778094243 | 12.78° C | 85% | 1008.3 hPa | 2.54 mm | - | 0 W/m² | - |
| 1778093884 | 12.78° C | 84% | 1008.2 hPa | 2.29 mm | - | 0 W/m² | - |
| 1778093583 | 12.78° C | 83% | 1008.1 hPa | 2.29 mm | - | 0 W/m² | - |
| 1778093224 | 13.33° C | 82% | 1008 hPa | 2.03 mm | - | 0 W/m² | - |
| 1778093104 | 13.33° C | 81% | 1007.8 hPa | 1.78 mm | - | 0 W/m² | - |
| 1778092810 | 13.89° C | 79% | 1007.8 hPa | 1.52 mm | - | 0 W/m² | - |
| 1778092563 | 13.89° C | 78% | 1007.7 hPa | 1.52 mm | - | 0 W/m² | - |
| 1778090407 | 14.44° C | 72% | 1007.1 hPa | 0 mm | - | 9 W/m² | - |
| 1778090047 | 14.44° C | 72% | 1006.8 hPa | 0 mm | - | 16 W/m² | - |
| 1778089807 | 14.44° C | 72% | 1006.7 hPa | 0 mm | - | 18 W/m² | - |
| 1778089747 | 14.44° C | 72% | 1006.7 hPa | 0 mm | - | 19 W/m² | - |
| 1778089087 | 14.44° C | 73% | 1006.3 hPa | 0 mm | - | 69 W/m² | - |
| 1778088796 | 14.44° C | 73% | 1006.3 hPa | 0 mm | - | 90 W/m² | - |
| 1778088367 | 14.44° C | 73% | 1006.3 hPa | 0 mm | - | 104 W/m² | - |
* Rain latest hour (hover to see other rain measurements)
** Current wind speed in m/s (hover to see current wind gust speed)